Location: Davayat
(45.9471°N, 3.1105°E)
Time: 16:09:13
(UTC+00:00)

Cosmos 1689 Rocket - Pass Details

Date: 01 December 2020
Orbit: 356 x 370 km, 97.5° (Epoch: 22 January)

Event Time Altitude Azimuth Distance (km) Brightness Sun altitude
Rises 06:25:35 0° 223° (SW) 2,176 5.7 -7.5°
Enters shadow 06:28:36 - 263° (W) 1,567 4.6 -7.1°
Exits shadow 06:53:31 -46° 9° (N) 9,661 9.0 -3.2°
